Time,TemperatureF,DewpointF,PressureIn,WindDirection,WindDirectionDegrees,WindSpeedMPH,WindSpeedGustMPH,Humidity,HourlyPrecipIn,Conditions,Clouds,dailyrainin,SolarRadiationWatts/m^2,SoftwareType,DateUTC
2013-01-01 00:11:00,5.0,0.0,-100.00,ESE,110,0.0,2.0,81,-99.99,,,0.00,1.000000,,2013-01-01 08:11:00,
2013-01-01 01:11:00,4.0,-1.0,-100.00,NW,319,0.0,2.0,79,-99.99,,,-99.99,1.000000,,2013-01-01 09:11:00,
2013-01-01 02:12:00,2.0,-3.0,-100.00,South,171,0.0,2.0,78,-99.99,,,-99.99,1.000000,,2013-01-01 10:12:00,
2013-01-01 02:22:00,2.0,-3.0,-100.00,South,171,0.0,2.0,78,-99.99,,,-99.99,1.000000,,2013-01-01 10:22:00,
2013-01-01 03:12:00,0.0,-6.0,-100.00,SSW,207,0.0,2.0,76,-99.99,,,-99.99,1.000000,,2013-01-01 11:12:00,
2013-01-01 03:22:00,0.0,-6.0,-100.00,SSW,207,0.0,2.0,76,-99.99,,,-99.99,1.000000,,2013-01-01 11:22:00,
2013-01-01 04:12:00,-1.0,-7.0,-100.00,West,273,0.0,2.0,75,-99.99,,,-99.99,1.000000,,2013-01-01 12:12:00,
2013-01-01 04:22:00,-1.0,-7.0,-100.00,West,273,0.0,2.0,75,-99.99,,,-99.99,1.000000,,2013-01-01 12:22:00,
2013-01-01 05:12:00,-1.0,-7.0,-100.00,ESE,104,0.0,2.0,75,-99.99,,,-99.99,1.000000,,2013-01-01 13:12:00,
2013-01-01 05:22:00,-1.0,-7.0,-100.00,ESE,104,0.0,2.0,75,-99.99,,,-99.99,1.000000,,2013-01-01 13:22:00,
2013-01-01 06:12:00,0.0,-5.0,-100.00,SSE,165,0.0,2.0,77,-99.99,,,-99.99,1.000000,,2013-01-01 14:12:00,
2013-01-01 06:22:00,0.0,-5.0,-100.00,SSE,165,0.0,2.0,77,-99.99,,,-99.99,1.000000,,2013-01-01 14:22:00,
2013-01-01 07:12:00,4.0,-2.0,-100.00,South,172,1.0,2.0,77,-99.99,,,-99.99,1.000000,,2013-01-01 15:12:00,
2013-01-01 07:22:00,4.0,-2.0,-100.00,South,172,1.0,2.0,77,-99.99,,,-99.99,1.000000,,2013-01-01 15:22:00,
2013-01-01 08:12:00,2.0,-3.0,-100.00,ESE,114,1.0,3.0,78,-99.99,,,-99.99,6.000000,,2013-01-01 16:12:00,
2013-01-01 08:22:00,2.0,-3.0,-100.00,ESE,114,1.0,3.0,78,-99.99,,,-99.99,6.000000,,2013-01-01 16:22:00,
2013-01-01 09:22:00,8.0,2.0,-100.00,ESE,118,1.0,3.0,76,-99.99,,,-99.99,32.000000,,2013-01-01 17:22:00,
2013-01-01 10:12:00,26.0,18.0,-100.00,SSE,165,1.0,4.0,72,-99.99,,,-99.99,271.000000,,2013-01-01 18:12:00,
2013-01-01 10:22:00,26.0,18.0,-100.00,SSE,165,1.0,4.0,72,-99.99,,,-99.99,271.000000,,2013-01-01 18:22:00,
2013-01-01 10:51:00,36.0,10.0,-100.00,SSW,206,2.0,5.0,34,0.00,,,-99.99,358.000000,,2013-01-01 18:51:00,
2013-01-01 11:22:00,36.0,10.0,-100.00,SSW,206,2.0,5.0,34,0.00,,,-99.99,358.000000,,2013-01-01 19:22:00,
2013-01-01 11:42:00,36.0,10.0,-100.00,SSW,206,2.0,5.0,34,0.00,,,-99.99,358.000000,,2013-01-01 19:42:00,
2013-01-01 11:51:00,40.0,4.0,-100.00,NE,41,2.0,5.0,22,-99.99,,,-99.99,489.000000,,2013-01-01 19:51:00,
2013-01-01 12:22:00,40.0,4.0,-100.00,NE,41,2.0,5.0,22,-99.99,,,-99.99,489.000000,,2013-01-01 20:22:00,
2013-01-01 12:42:00,40.0,4.0,-100.00,NE,41,2.0,5.0,22,-99.99,,,-99.99,489.000000,,2013-01-01 20:42:00,
2013-01-01 13:12:00,42.0,5.0,-100.00,NW,309,3.0,7.0,21,-99.99,,,-99.99,496.000000,,2013-01-01 21:12:00,
2013-01-01 14:12:00,41.0,10.0,-100.00,WNW,284,4.0,8.0,28,-99.99,,,-99.99,444.000000,,2013-01-01 22:12:00,
2013-01-01 14:51:00,36.0,10.0,-100.00,NW,306,4.0,10.0,33,-99.99,,,-99.99,340.000000,,2013-01-01 22:51:00,
2013-01-01 15:12:00,36.0,10.0,-100.00,NW,306,4.0,10.0,33,-99.99,,,-99.99,340.000000,,2013-01-01 23:12:00,
2013-01-01 15:22:00,36.0,10.0,-100.00,NW,306,4.0,10.0,33,-99.99,,,-99.99,340.000000,,2013-01-01 23:22:00,
2013-01-01 15:32:00,36.0,10.0,-100.00,NW,306,4.0,10.0,33,-99.99,,,-99.99,340.000000,,2013-01-01 23:32:00,
2013-01-01 15:42:00,36.0,10.0,-100.00,NW,306,4.0,10.0,33,-99.99,,,-99.99,340.000000,,2013-01-01 23:42:00,
2013-01-01 15:51:00,30.0,11.0,-100.00,NW,316,4.0,13.0,44,-99.99,,,-99.99,180.000000,,2013-01-01 23:51:00,
2013-01-01 16:12:00,30.0,11.0,-100.00,NW,316,4.0,13.0,44,-99.99,,,-99.99,180.000000,,2013-01-02 00:12:00,
2013-01-01 16:22:00,30.0,11.0,-100.00,NW,316,4.0,13.0,44,-99.99,,,-99.99,180.000000,,2013-01-02 00:22:00,
2013-01-01 16:32:00,30.0,11.0,-100.00,NW,316,4.0,13.0,44,-99.99,,,-99.99,180.000000,,2013-01-02 00:32:00,
2013-01-01 16:42:00,30.0,11.0,-100.00,NW,316,4.0,13.0,44,-99.99,,,-99.99,180.000000,,2013-01-02 00:42:00,
2013-01-01 16:51:00,22.0,8.0,-100.00,East,81,2.0,10.0,55,0.00,,,-99.99,13.000000,,2013-01-02 00:51:00,
2013-01-01 17:12:00,22.0,8.0,-100.00,East,81,2.0,10.0,55,0.00,,,-99.99,13.000000,,2013-01-02 01:12:00,
2013-01-01 17:22:00,22.0,8.0,-100.00,East,81,2.0,10.0,55,0.00,,,-99.99,13.000000,,2013-01-02 01:22:00,
2013-01-01 17:32:00,22.0,8.0,-100.00,East,81,2.0,10.0,55,0.00,,,-99.99,13.000000,,2013-01-02 01:32:00,
2013-01-01 17:42:00,22.0,8.0,-100.00,East,81,2.0,10.0,55,0.00,,,-99.99,13.000000,,2013-01-02 01:42:00,
2013-01-01 17:51:00,17.0,10.0,-100.00,South,176,1.0,5.0,72,0.00,,,-99.99,1.000000,,2013-01-02 01:51:00,
2013-01-01 18:12:00,17.0,10.0,-100.00,South,176,1.0,5.0,72,0.00,,,-99.99,1.000000,,2013-01-02 02:12:00,
2013-01-01 18:22:00,17.0,10.0,-100.00,South,176,1.0,5.0,72,0.00,,,-99.99,1.000000,,2013-01-02 02:22:00,
2013-01-01 18:32:00,17.0,10.0,-100.00,South,176,1.0,5.0,72,0.00,,,-99.99,1.000000,,2013-01-02 02:32:00,
2013-01-01 18:42:00,17.0,10.0,-100.00,South,176,1.0,5.0,72,0.00,,,-99.99,1.000000,,2013-01-02 02:42:00,
2013-01-01 18:51:00,15.0,6.0,-100.00,SSE,161,2.0,4.0,67,0.00,,,-99.99,1.000000,,2013-01-02 02:51:00,
2013-01-01 19:11:00,15.0,6.0,-100.00,SSE,161,2.0,4.0,67,0.00,,,-99.99,1.000000,,2013-01-02 03:11:00,
2013-01-01 19:22:00,15.0,6.0,-100.00,SSE,161,2.0,4.0,67,0.00,,,-99.99,1.000000,,2013-01-02 03:22:00,
2013-01-01 19:32:00,15.0,6.0,-100.00,SSE,161,2.0,4.0,67,0.00,,,-99.99,1.000000,,2013-01-02 03:32:00,
2013-01-01 19:42:00,15.0,6.0,-100.00,SSE,161,2.0,4.0,67,0.00,,,-99.99,1.000000,,2013-01-02 03:42:00,
2013-01-01 20:12:00,12.0,5.0,-100.00,WNW,294,1.0,7.0,72,0.00,,,-99.99,1.000000,,2013-01-02 04:12:00,
2013-01-01 20:22:00,12.0,5.0,-100.00,WNW,294,1.0,7.0,72,0.00,,,-99.99,1.000000,,2013-01-02 04:22:00,
2013-01-01 20:32:00,12.0,5.0,-100.00,WNW,294,1.0,7.0,72,0.00,,,-99.99,1.000000,,2013-01-02 04:32:00,
2013-01-01 21:12:00,6.0,2.0,-100.00,South,183,1.0,2.0,82,-99.99,,,-99.99,1.000000,,2013-01-02 05:12:00,
2013-01-01 21:22:00,6.0,2.0,-100.00,South,183,1.0,2.0,82,-99.99,,,-99.99,1.000000,,2013-01-02 05:22:00,
2013-01-01 22:22:00,2.0,-3.0,-100.00,West,262,1.0,3.0,78,-99.99,,,-99.99,1.000000,,2013-01-02 06:22:00,
2013-01-01 23:12:00,1.0,-4.0,-100.00,North,357,1.0,4.0,77,-99.99,,,-99.99,1.000000,,2013-01-02 07:12:00,
2013-01-01 23:22:00,1.0,-4.0,-100.00,North,357,1.0,4.0,77,-99.99,,,-99.99,1.000000,,2013-01-02 07:22:00,